Grand Forks, ND

8:07 PM CDT on April 25, 2017 (GMT -0500)
Grand Forks International

Weather History for KGFK - January, 2013

Change the Weather History Date:

Monday, January 21, 2013

  Actual Average Record
Temperature  
Mean Temperature -12 °F 6 °F  
Max Temperature -8 °F 17 °F 45 °F (1942)
Min Temperature -17 °F -4 °F -35 °F (1970)
Degree Days  
Heating Degree Days 77 59  
Month to date heating degree days 1121 1231  
Since 1 July heating degree days 4879 5090  
Cooling Degree Days 0 0  
Month to date cooling degree days 0 0  
Year to date cooling degree days 0 0  
Moisture  
Dew Point -21 °F    
Average Humidity 66    
Maximum Humidity 74    
Minimum Humidity 58    
Precipitation  
Precipitation 0.00 in 0.02 in 0.52 in (1957)
Month to date precipitation 0.39 0.39  
Year to date precipitation 0.39 0.39  
Snow  
Snow 0.00 in 0.30 in 6.40 in (1952)
Month to date snowfall 3.5 7.6  
Since 1 July snowfall 18.5 27.5  
Snow Depth 7.00 in    
Sea Level Pressure  
Sea Level Pressure 30.38 in    
Wind  
Wind Speed 10 mph (WNW)    
Max Wind Speed 20 mph    
Max Gust Speed 23 mph    
Visibility 10 miles    
Events      
T = Trace of Precipitation, MM = Missing Value Source: NWS Daily Summary

Daily Weather History Graph

Daily Weather History Graph

Search for Another Location

Airport or City:

Trip Planner

Search our weather history database for the weather conditions in past years. The results will help you decide how hot, cold, wet, or windy it might be!

Date:

Astronomy

Jan. 21, 2013 Rise Set
Actual Time 8:08 AM CST 5:12 PM CST
Civil Twilight 7:33 AM CST 5:46 PM CST
Nautical Twilight 6:55 AM CST 6:24 PM CST
Astronomical Twilight 6:19 AM CST 7:01 PM CST
Moon 12:51 PM CST (1/21) 3:38 AM CST (1/21)
Length of Visible Light 10h 12m
Length of Day
9h 04m
Waxing Gibbous, 75% of the Moon is Illuminated
Jan 21
Waxing Gibbous
Jan 26
Full
Feb 3
Last Quarter
Feb 10
New
Feb 17
First Quarter

Hourly Weather History & Observations

Time (CST) Temp. Windchill Dew Point Humidity Pressure Visibility Wind Dir Wind Speed Gust Speed Precip Events Conditions
12:53 AM -14.1 °F -35.7 °F -22.0 °F 68% 30.42 in 10.0 mi NW 12.7 mph - N/A   Clear
1:53 AM -15.0 °F -34.8 °F -23.1 °F 67% 30.43 in 10.0 mi WNW 10.4 mph - N/A   Clear
2:53 AM -15.0 °F -32.4 °F -23.1 °F 67% 30.43 in 10.0 mi WNW 8.1 mph - N/A   Clear
3:53 AM -16.1 °F -35.0 °F -24.0 °F 67% 30.42 in 10.0 mi WNW 9.2 mph - N/A   Clear
4:53 AM -16.1 °F -37.2 °F -24.0 °F 67% 30.40 in 10.0 mi WNW 11.5 mph - N/A   Clear
5:53 AM -16.1 °F -37.2 °F -24.0 °F 67% 30.40 in 10.0 mi WNW 11.5 mph - N/A   Clear
6:53 AM -16.1 °F -36.2 °F -24.0 °F 67% 30.40 in 10.0 mi WNW 10.4 mph - N/A   Clear
7:53 AM -17.0 °F -37.3 °F -24.0 °F 70% 30.40 in 10.0 mi WNW 10.4 mph - N/A   Clear
8:53 AM -15.0 °F -37.7 °F -24.0 °F 64% 30.40 in 10.0 mi WNW 13.8 mph - N/A   Clear
9:53 AM -13.0 °F -34.3 °F -22.0 °F 64% 30.39 in 10.0 mi WNW 12.7 mph - N/A   Clear
10:53 AM -11.0 °F -33.5 °F -20.9 °F 62% 30.40 in 10.0 mi WNW 15.0 mph - N/A   Clear
11:53 AM -9.0 °F -32.4 °F -18.9 °F 62% 30.38 in 10.0 mi NW 17.3 mph - N/A   Partly Cloudy
12:53 PM -9.0 °F -32.4 °F -18.9 °F 62% 30.37 in 10.0 mi NW 17.3 mph - N/A   Partly Cloudy
1:53 PM -9.0 °F -30.9 °F -18.9 °F 62% 30.36 in 10.0 mi WNW 15.0 mph - N/A   Partly Cloudy
2:17 PM -9.4 °F -31.4 °F -18.4 °F 65% 30.27 in 7.0 mi NW 15.0 mph - N/A   Mostly Cloudy
2:45 PM -9.4 °F -30.6 °F -18.4 °F 65% 30.27 in 10.0 mi NW 13.8 mph - N/A   Scattered Clouds
2:53 PM -9.0 °F -29.3 °F -18.9 °F 62% 30.38 in 10.0 mi NW 12.7 mph - N/A   Partly Cloudy
3:53 PM -9.0 °F -26.4 °F -18.9 °F 62% 30.38 in 10.0 mi WNW 9.2 mph - N/A   Partly Cloudy
4:53 PM -9.9 °F -23.4 °F -20.0 °F 61% 30.38 in 10.0 mi NW 5.8 mph - N/A   Partly Cloudy
5:53 PM -11.9 °F -25.7 °F -18.9 °F 71% 30.38 in 10.0 mi WNW 5.8 mph - N/A   Partly Cloudy
6:53 PM -13.0 °F -25.1 °F -20.0 °F 71% 30.38 in 10.0 mi West 4.6 mph - N/A   Partly Cloudy
7:53 PM -14.1 °F -29.9 °F -20.9 °F 71% 30.38 in 10.0 mi West 6.9 mph - N/A   Partly Cloudy
8:53 PM -15.0 °F -29.3 °F -20.9 °F 75% 30.38 in 10.0 mi WNW 5.8 mph - N/A   Partly Cloudy
9:53 PM -14.8 °F -29.1 °F -20.2 °F 77% 30.27 in 10.0 mi West 5.8 mph - N/A   Clear
10:53 PM -15.0 °F -25.0 °F -22.0 °F 71% 30.37 in 10.0 mi WNW 3.5 mph - N/A   Clear
11:53 PM -15.0 °F - -20.9 °F 75% 30.38 in 10.0 mi Calm Calm - N/A   Clear